Content
SEND FEEDBACK

Daily
Averages
Monthly
Summary
United States of America

GRIDLEY, CALIFORNIA


Home > North America > United States > California
Elevation: 100 feet     Latitude: 39 22N     Longitude: 121 42W

WEATHER
 
SELECT A DAY
Number of Records: 156,651;   Date Range: 6/17/98 - 12/19/14
 
SHARE

PRINT THIS DATA

[ ← Previous Day ]
WEATHER ALMANAC - JANUARY 31, 2013
[ Next Day → ]
[ °C ]   °F
Weather ElementAverageHighLow
Temperature45.6 °F60.1 °F (2:53 pm)36 °F (6:14 am)
Dewpoint40.6 °F45 °F (12:53 pm)36 °F (6:14 am)
Humidity84.4 %100 % (6:05 am)55 % (2:53 pm)
Barometer30.29 in30.35 in (8:53 am)30.23 in (3:53 pm)
Wind Speed2.9 mph6.9 mph (6:53 am)
Weather ElementAverage
Visibility8.2 mi
Wind DirectionE (84.6 °)

Weather ElementTotal
Precipitation---
Heating Degree Days17 (Base 65)
Averaged from 28 records on January 31, 2013
WEATHER CONDITIONS BREAKOUT
WIND DIRECTION BREAKOUT
WEATHER BY HOUR - JANUARY 31, 2013
[ °C ]   °F
Local TimeTemperatureDewpointHumidityBarometerVisibilityWind DirectionWind SpeedGust SpeedPrecipitationEventsConditions
1:53 AM43.0 °F39.9 °F89 %30.32 in10.0 miENE (60°)3.5 mphClear
2:53 AM42.1 °F39.0 °F89 %30.31 in10.0 miCalmClear
3:53 AM37.9 °F37.0 °F97 %30.30 in10.0 miNorth (10°)3.5 mphClear
4:53 AM39.0 °F37.9 °F96 %30.30 in10.0 miCalmClear
5:53 AM39.0 °F37.0 °F93 %30.31 in4.0 miCalmClear
6:05 AM37.9 °F37.9 °F100 %30.30 in1.8 miCalmClear
6:14 AM36.0 °F36.0 °F100 %30.30 in1.5 miSE (130°)4.6 mphPartly Cloudy
6:18 AM36.0 °F36.0 °F100 %30.31 in0.8 miESE (110°)3.5 mphMist
6:41 AM37.0 °F37.0 °F100 %30.31 in1.2 miEast (90°)4.6 mphScattered Clouds
6:44 AM36.0 °F36.0 °F100 %30.31 in3.0 miEast (100°)5.8 mphScattered Clouds
6:53 AM37.0 °F36.0 °F96 %30.32 in8.0 miEast (90°)6.9 mphPartly Cloudy
7:53 AM37.9 °F37.0 °F97 %30.34 in8.0 miEast (90°)3.5 mphClear
8:53 AM46.0 °F42.1 °F86 %30.35 in10.0 miEast (90°)3.5 mphClear
9:53 AM50.0 °F42.1 °F74 %30.35 in10.0 miESE (120°)4.6 mphClear
10:53 AM54.0 °F43.0 °F66 %30.33 in10.0 miSouth (180°)3.5 mphClear
11:53 AM55.9 °F44.1 °F64 %30.31 in10.0 miVariable3.5 mphClear
12:53 PM55.9 °F45.0 °F67 %30.29 in10.0 miWest (260°)3.5 mphClear
1:53 PM59.0 °F44.1 °F58 %30.26 in10.0 miCalmClear
2:53 PM60.1 °F44.1 °F55 %30.24 in10.0 miCalmClear
3:53 PM59.0 °F44.1 °F58 %30.23 in10.0 miWNW (300°)3.5 mphClear
4:53 PM57.0 °F44.1 °F62 %30.23 in10.0 miCalmClear
5:53 PM51.1 °F45.0 °F80 %30.23 in10.0 miNNW (340°)3.5 mphClear
6:53 PM48.9 °F43.0 °F80 %30.24 in10.0 miNorth (10°)4.6 mphClear
7:53 PM46.0 °F43.0 °F89 %30.24 in10.0 miNE (50°)3.5 mphClear
8:53 PM46.0 °F43.0 °F89 %30.25 in10.0 miNNE (30°)3.5 mphClear
9:53 PM44.1 °F42.1 °F93 %30.25 in10.0 miCalmClear
10:53 PM43.0 °F41.0 °F93 %30.24 in10.0 miNNE (30°)4.6 mphClear
11:53 PM43.0 °F41.0 °F93 %30.24 in10.0 miWest (280°)3.5 mphClear
Hourly data recorded from KOVE, located miles away from Gridley, California







STORIES FROM OUR PARTNERS